Time,TemperatureF,DewpointF,PressureIn,WindDirection,WindDirectionDegrees,WindSpeedMPH,WindSpeedGustMPH,Humidity,HourlyPrecipIn,Conditions,Clouds,dailyrainin,SoftwareType,DateUTC
2013-10-29 00:01:00,43.7,31.5,30.34,NE,45,0.0,0.0,62,0.00,,,0.00,meteobridge,2013-10-29 04:01:00,
2013-10-29 00:02:00,43.7,31.5,30.34,NE,45,0.0,0.0,62,0.00,,,0.00,meteobridge,2013-10-29 04:02:00,
2013-10-29 00:03:00,43.5,31.3,30.35,NE,45,0.0,0.0,62,0.00,,,0.00,meteobridge,2013-10-29 04:03:00,
2013-10-29 00:06:00,43.5,31.8,30.35,NE,45,0.0,0.0,63,0.00,,,0.00,meteobridge,2013-10-29 04:06:00,
2013-10-29 00:08:00,43.3,31.6,30.35,NE,45,0.0,0.0,63,0.00,,,0.00,meteobridge,2013-10-29 04:08:00,
2013-10-29 00:09:00,43.3,31.6,30.35,NE,45,0.0,0.0,63,0.00,,,0.00,meteobridge,2013-10-29 04:09:00,
2013-10-29 00:14:00,43.2,31.8,30.35,NE,45,0.0,0.0,64,0.00,,,0.00,meteobridge,2013-10-29 04:14:00,
2013-10-29 00:20:00,43.0,32.0,30.35,NE,45,0.0,0.0,65,0.00,,,0.00,meteobridge,2013-10-29 04:20:00,
2013-10-29 00:25:00,42.4,31.8,30.35,NE,45,0.0,0.0,66,0.00,,,0.00,meteobridge,2013-10-29 04:25:00,
2013-10-29 00:31:00,42.1,31.5,30.36,NE,45,0.0,0.0,66,0.00,,,0.00,meteobridge,2013-10-29 04:31:00,
2013-10-29 00:36:00,41.9,32.5,30.36,NE,45,0.0,0.0,69,0.00,,,0.00,meteobridge,2013-10-29 04:36:00,
2013-10-29 00:41:00,41.5,32.2,30.36,NE,45,0.0,0.0,69,0.00,,,0.00,meteobridge,2013-10-29 04:41:00,
2013-10-29 00:47:00,41.4,32.4,30.36,NE,45,0.0,0.0,70,0.00,,,0.00,meteobridge,2013-10-29 04:47:00,
2013-10-29 00:52:00,41.2,32.5,30.37,NE,45,0.0,0.0,71,0.00,,,0.00,meteobridge,2013-10-29 04:52:00,
2013-10-29 00:57:00,40.8,32.5,30.37,NE,45,0.0,0.0,72,0.00,,,0.00,meteobridge,2013-10-29 04:57:00,
2013-10-29 01:03:00,40.5,31.8,30.37,NE,45,0.0,0.0,71,0.00,,,0.00,meteobridge,2013-10-29 05:03:00,
2013-10-29 01:08:00,40.3,32.0,30.37,NE,45,0.0,0.0,72,0.00,,,0.00,meteobridge,2013-10-29 05:08:00,
2013-10-29 01:13:00,40.1,31.5,30.37,NE,45,0.0,0.0,71,0.00,,,0.00,meteobridge,2013-10-29 05:13:00,
2013-10-29 01:18:00,39.9,31.3,30.37,ENE,73,0.0,0.9,71,0.00,,,0.00,meteobridge,2013-10-29 05:18:00,
2013-10-29 01:23:00,39.9,31.3,30.37,ENE,73,0.0,0.0,71,0.00,,,0.00,meteobridge,2013-10-29 05:23:00,
2013-10-29 01:29:00,39.9,31.3,30.37,ENE,73,0.0,0.0,71,0.00,,,0.00,meteobridge,2013-10-29 05:29:00,
2013-10-29 01:34:00,39.7,31.1,30.37,ENE,73,0.0,0.0,71,0.00,,,0.00,meteobridge,2013-10-29 05:34:00,
2013-10-29 01:40:00,39.7,31.1,30.37,ENE,73,0.0,0.0,71,0.00,,,0.00,meteobridge,2013-10-29 05:40:00,
2013-10-29 01:45:00,39.7,31.1,30.37,ENE,73,0.0,0.0,71,0.00,,,0.00,meteobridge,2013-10-29 05:45:00,
2013-10-29 01:50:00,39.7,31.1,30.37,ENE,73,0.0,0.0,71,0.00,,,0.00,meteobridge,2013-10-29 05:50:00,
2013-10-29 01:55:00,39.7,30.7,30.37,ENE,73,0.0,0.0,70,0.00,,,0.00,meteobridge,2013-10-29 05:55:00,
2013-10-29 02:00:00,39.7,30.7,30.37,ENE,73,0.0,0.0,70,0.00,,,0.00,meteobridge,2013-10-29 06:00:00,
2013-10-29 02:05:00,39.7,30.7,30.37,ENE,73,0.0,0.0,70,0.00,,,0.00,meteobridge,2013-10-29 06:05:00,
2013-10-29 02:10:00,39.9,30.6,30.37,ENE,73,0.0,0.0,69,0.00,,,0.00,meteobridge,2013-10-29 06:10:00,
2013-10-29 02:16:00,39.9,30.6,30.37,ENE,73,0.0,0.0,69,0.00,,,0.00,meteobridge,2013-10-29 06:16:00,
2013-10-29 02:21:00,40.1,30.7,30.37,ENE,73,0.0,0.0,69,0.00,,,0.00,meteobridge,2013-10-29 06:21:00,
2013-10-29 02:26:00,40.3,30.6,30.37,ENE,73,0.0,0.0,68,0.00,,,0.00,meteobridge,2013-10-29 06:26:00,
2013-10-29 02:31:00,40.5,30.4,30.37,ENE,59,0.0,0.0,67,0.00,,,0.00,meteobridge,2013-10-29 06:31:00,
2013-10-29 02:36:00,40.5,30.7,30.37,ENE,59,0.0,0.0,68,0.00,,,0.00,meteobridge,2013-10-29 06:36:00,
2013-10-29 02:41:00,40.5,30.4,30.37,ENE,59,0.0,0.0,67,0.00,,,0.00,meteobridge,2013-10-29 06:41:00,
2013-10-29 02:47:00,40.6,30.6,30.37,ENE,59,0.0,0.0,67,0.00,,,0.00,meteobridge,2013-10-29 06:47:00,
2013-10-29 02:52:00,40.6,29.8,30.37,ENE,59,0.0,0.0,65,0.00,,,0.00,meteobridge,2013-10-29 06:52:00,
2013-10-29 02:57:00,40.6,30.2,30.37,ENE,59,0.0,0.0,66,0.00,,,0.00,meteobridge,2013-10-29 06:57:00,
2013-10-29 03:03:00,40.6,29.8,30.37,ENE,59,0.0,0.0,65,0.00,,,0.00,meteobridge,2013-10-29 07:03:00,
2013-10-29 03:08:00,40.6,30.2,30.37,ENE,59,0.0,0.0,66,0.00,,,0.00,meteobridge,2013-10-29 07:08:00,
2013-10-29 03:13:00,40.6,29.8,30.38,ENE,59,0.0,0.0,65,0.00,,,0.00,meteobridge,2013-10-29 07:13:00,
2013-10-29 03:18:00,40.6,30.6,30.38,ENE,60,0.0,0.9,67,0.00,,,0.00,meteobridge,2013-10-29 07:18:00,
2013-10-29 03:23:00,40.6,29.8,30.38,ENE,59,0.0,0.0,65,0.00,,,0.00,meteobridge,2013-10-29 07:23:00,
2013-10-29 03:29:00,40.6,29.8,30.38,ENE,60,0.0,0.0,65,0.00,,,0.00,meteobridge,2013-10-29 07:29:00,
2013-10-29 03:34:00,40.6,29.8,30.38,ENE,60,0.0,0.0,65,0.00,,,0.00,meteobridge,2013-10-29 07:34:00,
2013-10-29 03:39:00,40.6,29.8,30.38,SE,131,0.0,2.0,65,0.00,,,0.00,meteobridge,2013-10-29 07:39:00,
2013-10-29 03:45:00,40.6,29.8,30.38,SE,131,0.0,0.0,65,0.00,,,0.00,meteobridge,2013-10-29 07:45:00,
2013-10-29 03:50:00,40.6,29.8,30.38,SE,131,0.0,0.0,65,0.00,,,0.00,meteobridge,2013-10-29 07:50:00,
2013-10-29 03:55:00,40.6,29.8,30.38,SE,125,0.0,0.9,65,0.00,,,0.00,meteobridge,2013-10-29 07:55:00,
2013-10-29 04:00:00,40.6,29.5,30.39,East,95,0.0,2.0,64,0.00,,,0.00,meteobridge,2013-10-29 08:00:00,
2013-10-29 04:06:00,40.6,29.5,30.39,East,93,0.0,0.0,64,0.00,,,0.00,meteobridge,2013-10-29 08:06:00,
2013-10-29 04:11:00,40.6,29.8,30.39,ENE,63,0.0,0.0,65,0.00,,,0.00,meteobridge,2013-10-29 08:11:00,
2013-10-29 04:16:00,40.6,29.5,30.38,ENE,63,0.0,0.0,64,0.00,,,0.00,meteobridge,2013-10-29 08:16:00,
2013-10-29 04:22:00,40.6,29.8,30.39,ENE,63,0.0,0.0,65,0.00,,,0.00,meteobridge,2013-10-29 08:22:00,
2013-10-29 04:27:00,40.6,29.1,30.39,ENE,63,0.0,0.0,63,0.00,,,0.00,meteobridge,2013-10-29 08:27:00,
2013-10-29 04:32:00,40.6,29.1,30.39,ENE,63,0.0,0.0,63,0.00,,,0.00,meteobridge,2013-10-29 08:32:00,
2013-10-29 04:37:00,40.5,29.3,30.39,East,83,2.0,2.0,64,0.00,,,0.00,meteobridge,2013-10-29 08:37:00,
2013-10-29 04:43:00,40.5,28.9,30.39,East,82,0.0,0.0,63,0.00,,,0.00,meteobridge,2013-10-29 08:43:00,
2013-10-29 04:48:00,40.5,28.9,30.39,East,82,0.0,0.0,63,0.00,,,0.00,meteobridge,2013-10-29 08:48:00,
2013-10-29 04:53:00,40.5,28.9,30.40,East,82,0.0,0.0,63,0.00,,,0.00,meteobridge,2013-10-29 08:53:00,
2013-10-29 04:58:00,40.5,28.9,30.40,ENE,78,0.9,0.9,63,0.00,,,0.00,meteobridge,2013-10-29 08:58:00,
2013-10-29 05:03:00,40.5,28.4,30.40,NE,44,0.0,2.0,62,0.00,,,0.00,meteobridge,2013-10-29 09:03:00,
2013-10-29 05:09:00,40.5,28.0,30.40,NE,44,0.0,2.0,61,0.00,,,0.00,meteobridge,2013-10-29 09:09:00,
2013-10-29 05:14:00,40.5,28.4,30.40,ENE,63,0.9,0.9,62,0.00,,,0.00,meteobridge,2013-10-29 09:14:00,
2013-10-29 05:19:00,40.5,27.7,30.40,ENE,67,0.0,0.9,60,0.00,,,0.00,meteobridge,2013-10-29 09:19:00,
2013-10-29 05:25:00,40.5,28.4,30.40,NNE,15,0.0,0.0,62,0.00,,,0.00,meteobridge,2013-10-29 09:25:00,
2013-10-29 05:30:00,40.5,28.4,30.40,East,90,0.0,0.9,62,0.00,,,0.00,meteobridge,2013-10-29 09:30:00,
2013-10-29 05:35:00,40.5,28.4,30.40,East,90,0.0,0.0,62,0.00,,,0.00,meteobridge,2013-10-29 09:35:00,
2013-10-29 05:41:00,40.5,28.0,30.40,ENE,63,0.0,0.0,61,0.00,,,0.00,meteobridge,2013-10-29 09:41:00,
2013-10-29 05:46:00,40.5,28.0,30.41,ENE,63,0.0,0.0,61,0.00,,,0.00,meteobridge,2013-10-29 09:46:00,
2013-10-29 05:51:00,40.5,28.0,30.41,East,84,0.0,2.0,61,0.00,,,0.00,meteobridge,2013-10-29 09:51:00,
2013-10-29 05:57:00,40.5,28.0,30.41,ENE,76,0.0,2.0,61,0.00,,,0.00,meteobridge,2013-10-29 09:57:00,
2013-10-29 06:02:00,40.3,27.9,30.41,ENE,76,0.0,0.0,61,0.00,,,0.00,meteobridge,2013-10-29 10:02:00,
2013-10-29 06:08:00,40.3,28.2,30.41,ENE,76,0.0,0.0,62,0.00,,,0.00,meteobridge,2013-10-29 10:08:00,
2013-10-29 06:13:00,40.3,29.1,30.41,ENE,73,0.0,0.0,64,0.00,,,0.00,meteobridge,2013-10-29 10:13:00,
2013-10-29 06:19:00,40.1,28.0,30.41,ENE,73,0.0,0.0,62,0.00,,,0.00,meteobridge,2013-10-29 10:19:00,
2013-10-29 06:24:00,39.9,27.5,30.41,ENE,73,0.0,0.0,61,0.00,,,0.00,meteobridge,2013-10-29 10:24:00,
2013-10-29 06:29:00,39.9,28.4,30.41,ENE,73,0.0,0.0,63,0.00,,,0.00,meteobridge,2013-10-29 10:29:00,
2013-10-29 06:34:00,39.9,28.0,30.41,NE,44,0.9,2.0,62,0.00,,,0.00,meteobridge,2013-10-29 10:34:00,
2013-10-29 06:39:00,39.9,28.0,30.41,NNE,19,0.0,0.9,62,0.00,,,0.00,meteobridge,2013-10-29 10:39:00,
2013-10-29 06:44:00,39.7,28.2,30.41,NNE,25,0.0,0.0,63,0.00,,,0.00,meteobridge,2013-10-29 10:44:00,
2013-10-29 06:50:00,39.6,27.7,30.41,ENE,57,0.0,0.9,62,0.00,,,0.00,meteobridge,2013-10-29 10:50:00,
2013-10-29 06:55:00,39.6,28.0,30.42,ENE,61,0.0,0.0,63,0.00,,,0.00,meteobridge,2013-10-29 10:55:00,
2013-10-29 07:01:00,39.6,28.4,30.41,East,83,0.0,0.0,64,0.00,,,0.00,meteobridge,2013-10-29 11:01:00,
2013-10-29 07:06:00,39.4,28.2,30.41,East,84,0.0,0.9,64,0.00,,,0.00,meteobridge,2013-10-29 11:06:00,
2013-10-29 07:12:00,39.4,28.6,30.41,East,84,0.0,0.0,65,0.00,,,0.00,meteobridge,2013-10-29 11:12:00,
2013-10-29 07:17:00,39.6,28.0,30.42,NE,38,2.0,2.0,63,0.00,,,0.00,meteobridge,2013-10-29 11:17:00,
2013-10-29 07:22:00,39.6,28.0,30.42,NE,55,0.0,0.0,63,0.00,,,0.00,meteobridge,2013-10-29 11:22:00,
2013-10-29 07:27:00,39.6,28.4,30.42,NE,55,0.0,0.0,64,0.00,,,0.00,meteobridge,2013-10-29 11:27:00,
2013-10-29 07:33:00,39.6,27.7,30.42,ENE,72,0.9,0.9,62,0.00,,,0.00,meteobridge,2013-10-29 11:33:00,
2013-10-29 07:38:00,39.6,27.7,30.42,North,355,0.0,0.0,62,0.00,,,0.00,meteobridge,2013-10-29 11:38:00,
2013-10-29 07:43:00,39.6,28.0,30.42,North,355,0.0,0.0,63,0.00,,,0.00,meteobridge,2013-10-29 11:43:00,
2013-10-29 07:49:00,39.6,28.4,30.42,North,355,0.0,0.0,64,0.00,,,0.00,meteobridge,2013-10-29 11:49:00,
2013-10-29 07:54:00,39.6,27.1,30.42,North,355,0.9,0.9,61,0.00,,,0.00,meteobridge,2013-10-29 11:54:00,
2013-10-29 07:59:00,39.6,26.8,30.42,NE,39,0.0,2.9,60,0.00,,,0.00,meteobridge,2013-10-29 11:59:00,
2013-10-29 08:05:00,39.7,28.2,30.42,NE,45,0.0,0.0,63,0.00,,,0.00,meteobridge,2013-10-29 12:05:00,
2013-10-29 08:10:00,39.7,27.0,30.43,East,82,0.9,0.9,60,0.00,,,0.00,meteobridge,2013-10-29 12:10:00,
2013-10-29 08:15:00,39.7,27.9,30.43,NNE,18,0.0,0.0,62,0.00,,,0.00,meteobridge,2013-10-29 12:15:00,
2013-10-29 08:21:00,39.7,28.2,30.43,NNE,23,0.0,0.9,63,0.00,,,0.00,meteobridge,2013-10-29 12:21:00,
2013-10-29 08:26:00,39.7,27.0,30.43,NE,47,0.9,2.0,60,0.00,,,0.00,meteobridge,2013-10-29 12:26:00,
2013-10-29 08:31:00,39.7,27.0,30.43,NNE,32,0.0,0.0,60,0.00,,,0.00,meteobridge,2013-10-29 12:31:00,
2013-10-29 08:36:00,39.9,27.1,30.44,NE,55,0.0,2.0,60,0.00,,,0.00,meteobridge,2013-10-29 12:36:00,
2013-10-29 08:42:00,39.9,28.0,30.44,NNE,26,4.0,4.0,62,0.00,,,0.00,meteobridge,2013-10-29 12:42:00,
2013-10-29 08:47:00,39.7,27.0,30.44,NNE,27,0.0,0.0,60,0.00,,,0.00,meteobridge,2013-10-29 12:47:00,
2013-10-29 08:52:00,39.7,27.0,30.44,NNE,27,0.0,0.0,60,0.00,,,0.00,meteobridge,2013-10-29 12:52:00,
2013-10-29 08:57:00,39.7,26.6,30.44,North,0,0.0,2.0,59,0.00,,,0.00,meteobridge,2013-10-29 12:57:00,
2013-10-29 09:02:00,39.7,26.2,30.44,North,0,0.0,4.0,58,0.00,,,0.00,meteobridge,2013-10-29 13:02:00,
2013-10-29 09:08:00,39.7,26.6,30.44,NE,38,0.9,2.0,59,0.00,,,0.00,meteobridge,2013-10-29 13:08:00,
2013-10-29 09:13:00,39.7,26.2,30.44,NW,325,0.9,2.0,58,0.00,,,0.00,meteobridge,2013-10-29 13:13:00,
2013-10-29 09:18:00,39.9,26.4,30.45,East,89,0.0,0.0,58,0.00,,,0.00,meteobridge,2013-10-29 13:18:00,
2013-10-29 09:24:00,39.9,26.8,30.44,NW,323,0.0,2.0,59,0.00,,,0.00,meteobridge,2013-10-29 13:24:00,
2013-10-29 09:29:00,40.5,27.3,30.44,NNW,346,2.0,2.9,59,0.00,,,0.00,meteobridge,2013-10-29 13:29:00,
2013-10-29 09:34:00,40.8,26.8,30.44,North,5,0.0,4.0,57,0.00,,,0.00,meteobridge,2013-10-29 13:34:00,
2013-10-29 09:40:00,41.2,27.1,30.45,NNW,334,0.0,4.0,57,0.00,,,0.00,meteobridge,2013-10-29 13:40:00,
2013-10-29 09:45:00,41.4,27.3,30.45,East,87,0.0,0.9,57,0.00,,,0.00,meteobridge,2013-10-29 13:45:00,
2013-10-29 09:50:00,41.5,27.0,30.45,ENE,69,0.0,0.9,56,0.00,,,0.00,meteobridge,2013-10-29 13:50:00,
2013-10-29 09:56:00,41.7,27.7,30.45,ENE,69,0.0,0.0,57,0.00,,,0.00,meteobridge,2013-10-29 13:56:00,
2013-10-29 10:01:00,42.1,27.5,30.45,ENE,69,0.0,0.0,56,0.00,,,0.00,meteobridge,2013-10-29 14:01:00,
2013-10-29 10:06:00,42.3,27.3,30.44,East,86,0.0,2.0,55,0.00,,,0.00,meteobridge,2013-10-29 14:06:00,
2013-10-29 10:12:00,42.4,27.9,30.44,East,89,0.0,0.9,56,0.00,,,0.00,meteobridge,2013-10-29 14:12:00,
2013-10-29 10:17:00,42.4,28.2,30.44,ENE,69,0.9,2.0,57,0.00,,,0.00,meteobridge,2013-10-29 14:17:00,
2013-10-29 10:23:00,42.8,27.7,30.44,NNE,31,2.0,2.0,55,0.00,,,0.00,meteobridge,2013-10-29 14:23:00,
2013-10-29 10:28:00,43.0,27.9,30.44,North,5,0.9,0.9,55,0.00,,,0.00,meteobridge,2013-10-29 14:28:00,
2013-10-29 10:33:00,43.2,27.1,30.43,North,355,0.0,4.0,53,0.00,,,0.00,meteobridge,2013-10-29 14:33:00,
2013-10-29 10:39:00,43.2,27.1,30.43,North,355,0.0,0.9,53,0.00,,,0.00,meteobridge,2013-10-29 14:39:00,
2013-10-29 10:44:00,43.3,28.2,30.44,North,355,0.9,0.9,55,0.00,,,0.00,meteobridge,2013-10-29 14:44:00,
2013-10-29 10:50:00,43.5,28.0,30.44,NNE,23,4.0,4.9,54,0.00,,,0.00,meteobridge,2013-10-29 14:50:00,
2013-10-29 10:55:00,43.5,27.5,30.44,NE,36,4.9,6.0,53,0.00,,,0.00,meteobridge,2013-10-29 14:55:00,
2013-10-29 11:00:00,43.3,27.9,30.44,North,5,2.0,2.9,54,0.00,,,0.00,meteobridge,2013-10-29 15:00:00,
2013-10-29 11:05:00,43.5,27.5,30.43,North,350,0.9,4.0,53,0.00,,,0.00,meteobridge,2013-10-29 15:05:00,
2013-10-29 11:10:00,43.5,28.4,30.43,North,5,0.9,2.0,55,0.00,,,0.00,meteobridge,2013-10-29 15:10:00,
2013-10-29 11:16:00,43.7,27.7,30.43,NNE,24,0.9,4.0,53,0.00,,,0.00,meteobridge,2013-10-29 15:16:00,
2013-10-29 11:21:00,43.7,27.1,30.43,North,10,0.9,4.0,52,0.00,,,0.00,meteobridge,2013-10-29 15:21:00,
2013-10-29 11:26:00,43.9,27.3,30.43,North,5,2.0,4.0,52,0.00,,,0.00,meteobridge,2013-10-29 15:26:00,
2013-10-29 11:31:00,44.1,27.5,30.43,North,350,0.0,4.0,52,0.00,,,0.00,meteobridge,2013-10-29 15:31:00,
2013-10-29 11:37:00,44.1,27.5,30.43,NE,53,2.9,4.0,52,0.00,,,0.00,meteobridge,2013-10-29 15:37:00,
2013-10-29 11:42:00,44.2,27.7,30.43,North,350,0.0,0.0,52,0.00,,,0.00,meteobridge,2013-10-29 15:42:00,
2013-10-29 11:47:00,44.4,27.9,30.43,NNE,19,2.0,4.9,52,0.00,,,0.00,meteobridge,2013-10-29 15:47:00,
2013-10-29 11:53:00,44.2,27.7,30.43,NNE,17,0.0,0.0,52,0.00,,,0.00,meteobridge,2013-10-29 15:53:00,
2013-10-29 11:58:00,44.4,28.4,30.42,North,0,0.0,2.0,53,0.00,,,0.00,meteobridge,2013-10-29 15:58:00,
2013-10-29 12:03:00,45.0,27.9,30.42,North,11,0.9,2.9,51,0.00,,,0.00,meteobridge,2013-10-29 16:03:00,
2013-10-29 12:08:00,45.1,28.6,30.42,NNW,331,0.0,2.9,52,0.00,,,0.00,meteobridge,2013-10-29 16:08:00,
2013-10-29 12:13:00,45.5,28.9,30.42,NNE,17,0.9,2.0,52,0.00,,,0.00,meteobridge,2013-10-29 16:13:00,
2013-10-29 12:18:00,45.7,28.6,30.42,NNE,24,0.0,0.9,51,0.00,,,0.00,meteobridge,2013-10-29 16:18:00,
2013-10-29 12:24:00,45.7,27.7,30.42,North,10,0.0,4.0,49,0.00,,,0.00,meteobridge,2013-10-29 16:24:00,
2013-10-29 12:29:00,45.9,29.3,30.42,North,5,0.0,0.9,52,0.00,,,0.00,meteobridge,2013-10-29 16:29:00,
2013-10-29 12:35:00,45.9,28.2,30.41,NNE,32,2.0,2.9,50,0.00,,,0.00,meteobridge,2013-10-29 16:35:00,
2013-10-29 12:40:00,46.0,28.9,30.42,North,355,0.0,2.9,51,0.00,,,0.00,meteobridge,2013-10-29 16:40:00,
2013-10-29 12:45:00,46.2,29.5,30.41,NW,313,0.9,0.9,52,0.00,,,0.00,meteobridge,2013-10-29 16:45:00,
2013-10-29 12:51:00,46.6,30.4,30.41,NW,311,0.9,2.0,53,0.00,,,0.00,meteobridge,2013-10-29 16:51:00,
2013-10-29 12:56:00,46.8,29.7,30.41,NNE,33,2.9,2.9,51,0.00,,,0.00,meteobridge,2013-10-29 16:56:00,
2013-10-29 13:01:00,46.9,29.8,30.41,NNE,31,0.0,0.0,51,0.00,,,0.00,meteobridge,2013-10-29 17:01:00,
2013-10-29 13:06:00,47.1,28.9,30.41,NNE,15,0.9,4.0,49,0.00,,,0.00,meteobridge,2013-10-29 17:06:00,
2013-10-29 13:11:00,47.1,29.5,30.41,North,9,0.0,2.0,50,0.00,,,0.00,meteobridge,2013-10-29 17:11:00,
2013-10-29 13:16:00,47.1,30.4,30.41,NNE,25,2.0,2.0,52,0.00,,,0.00,meteobridge,2013-10-29 17:16:00,
2013-10-29 13:22:00,47.3,29.7,30.41,NW,325,2.0,2.0,50,0.00,,,0.00,meteobridge,2013-10-29 17:22:00,
2013-10-29 13:27:00,47.1,29.5,30.40,NE,43,0.0,2.9,50,0.00,,,0.00,meteobridge,2013-10-29 17:27:00,
2013-10-29 13:32:00,47.1,29.8,30.40,NW,321,0.0,4.0,51,0.00,,,0.00,meteobridge,2013-10-29 17:32:00,
2013-10-29 13:38:00,47.1,29.8,30.40,NNW,328,0.0,2.9,51,0.00,,,0.00,meteobridge,2013-10-29 17:38:00,
2013-10-29 13:43:00,47.3,30.6,30.40,NW,315,0.0,0.9,52,0.00,,,0.00,meteobridge,2013-10-29 17:43:00,
2013-10-29 13:48:00,47.5,30.7,30.39,North,0,0.9,2.9,52,0.00,,,0.00,meteobridge,2013-10-29 17:48:00,
2013-10-29 13:54:00,47.5,30.7,30.39,NE,37,0.9,2.9,52,0.00,,,0.00,meteobridge,2013-10-29 17:54:00,
2013-10-29 13:59:00,46.9,30.2,30.39,NE,35,4.0,4.0,52,0.00,,,0.00,meteobridge,2013-10-29 17:59:00,
2013-10-29 14:04:00,46.9,30.7,30.39,NNW,329,0.9,2.9,53,0.00,,,0.00,meteobridge,2013-10-29 18:04:00,
2013-10-29 14:09:00,47.1,30.9,30.39,NNW,342,2.0,2.9,53,0.00,,,0.00,meteobridge,2013-10-29 18:09:00,
2013-10-29 14:14:00,47.1,30.4,30.39,NNE,30,0.0,4.0,52,0.00,,,0.00,meteobridge,2013-10-29 18:14:00,
2013-10-29 14:19:00,47.1,31.3,30.38,SE,127,2.0,2.0,54,0.00,,,0.00,meteobridge,2013-10-29 18:19:00,
2013-10-29 14:25:00,47.1,31.3,30.38,WNW,282,0.9,2.0,54,0.00,,,0.00,meteobridge,2013-10-29 18:25:00,
2013-10-29 14:30:00,47.5,30.7,30.38,WNW,291,2.0,4.9,52,0.00,,,0.00,meteobridge,2013-10-29 18:30:00,
2013-10-29 14:35:00,47.7,31.3,30.38,SW,234,0.9,2.9,53,0.00,,,0.00,meteobridge,2013-10-29 18:35:00,
2013-10-29 14:40:00,47.8,30.6,30.38,WNW,290,0.0,4.9,51,0.00,,,0.00,meteobridge,2013-10-29 18:40:00,
2013-10-29 14:46:00,47.7,30.0,30.38,North,349,0.9,2.0,50,0.00,,,0.00,meteobridge,2013-10-29 18:46:00,
2013-10-29 14:51:00,47.7,30.9,30.38,West,271,0.9,2.9,52,0.00,,,0.00,meteobridge,2013-10-29 18:51:00,
2013-10-29 14:56:00,47.5,30.7,30.38,WSW,242,0.9,6.0,52,0.00,,,0.00,meteobridge,2013-10-29 18:56:00,
2013-10-29 15:01:00,47.3,30.6,30.38,West,277,2.9,4.0,52,0.00,,,0.00,meteobridge,2013-10-29 19:01:00,
2013-10-29 15:06:00,47.7,30.0,30.38,West,267,4.0,4.0,50,0.00,,,0.00,meteobridge,2013-10-29 19:06:00,
2013-10-29 15:12:00,47.7,30.0,30.38,NNW,335,2.0,2.0,50,0.00,,,0.00,meteobridge,2013-10-29 19:12:00,
2013-10-29 15:17:00,47.7,30.0,30.39,WNW,290,0.9,4.0,50,0.00,,,0.00,meteobridge,2013-10-29 19:17:00,
2013-10-29 15:22:00,47.8,29.7,30.39,WNW,292,2.9,4.9,49,0.00,,,0.00,meteobridge,2013-10-29 19:22:00,
2013-10-29 15:27:00,47.8,29.7,30.38,WNW,287,0.9,2.0,49,0.00,,,0.00,meteobridge,2013-10-29 19:27:00,
2013-10-29 15:32:00,48.0,30.2,30.39,WNW,286,6.0,6.0,50,0.00,,,0.00,meteobridge,2013-10-29 19:32:00,
2013-10-29 15:38:00,48.4,30.0,30.38,WNW,284,4.0,4.9,49,0.00,,,0.00,meteobridge,2013-10-29 19:38:00,
2013-10-29 15:43:00,48.6,30.2,30.38,WNW,288,0.9,4.0,49,0.00,,,0.00,meteobridge,2013-10-29 19:43:00,
2013-10-29 15:48:00,48.4,30.6,30.38,West,262,2.0,4.9,50,0.00,,,0.00,meteobridge,2013-10-29 19:48:00,
2013-10-29 15:53:00,48.4,30.6,30.39,SW,234,2.0,4.9,50,0.00,,,0.00,meteobridge,2013-10-29 19:53:00,
2013-10-29 15:59:00,48.4,31.6,30.38,SW,235,2.0,2.9,52,0.00,,,0.00,meteobridge,2013-10-29 19:59:00,
2013-10-29 16:04:00,48.4,31.1,30.38,West,278,0.9,2.0,51,0.00,,,0.00,meteobridge,2013-10-29 20:04:00,
2013-10-29 16:09:00,48.4,31.6,30.38,West,262,0.0,2.9,52,0.00,,,0.00,meteobridge,2013-10-29 20:09:00,
2013-10-29 16:15:00,48.4,30.6,30.39,West,274,0.0,4.0,50,0.00,,,0.00,meteobridge,2013-10-29 20:15:00,
2013-10-29 16:20:00,48.4,31.1,30.39,SW,236,2.0,2.9,51,0.00,,,0.00,meteobridge,2013-10-29 20:20:00,
2013-10-29 16:25:00,48.4,30.0,30.39,NNW,328,0.9,2.0,49,0.00,,,0.00,meteobridge,2013-10-29 20:25:00,
2013-10-29 16:30:00,48.6,30.7,30.39,WSW,252,0.0,2.9,50,0.00,,,0.00,meteobridge,2013-10-29 20:30:00,
2013-10-29 16:36:00,48.6,30.7,30.39,WSW,255,2.0,4.0,50,0.00,,,0.00,meteobridge,2013-10-29 20:36:00,
2013-10-29 16:41:00,48.4,31.1,30.39,WSW,242,0.9,4.0,51,0.00,,,0.00,meteobridge,2013-10-29 20:41:00,
2013-10-29 16:46:00,48.2,31.5,30.39,SW,236,2.0,2.0,52,0.00,,,0.00,meteobridge,2013-10-29 20:46:00,
2013-10-29 16:52:00,48.0,31.6,30.39,SW,222,2.0,2.9,53,0.00,,,0.00,meteobridge,2013-10-29 20:52:00,
2013-10-29 16:57:00,47.8,31.1,30.39,WSW,251,0.9,2.9,52,0.00,,,0.00,meteobridge,2013-10-29 20:57:00,
2013-10-29 17:02:00,47.8,31.1,30.39,West,269,0.0,2.0,52,0.00,,,0.00,meteobridge,2013-10-29 21:02:00,
2013-10-29 17:08:00,47.7,30.9,30.38,West,271,0.9,2.0,52,0.00,,,0.00,meteobridge,2013-10-29 21:08:00,
2013-10-29 17:13:00,47.5,30.7,30.38,West,262,0.0,2.0,52,0.00,,,0.00,meteobridge,2013-10-29 21:13:00,
2013-10-29 17:18:00,47.1,30.4,30.38,West,261,0.0,2.0,52,0.00,,,0.00,meteobridge,2013-10-29 21:18:00,
2013-10-29 17:24:00,46.9,31.1,30.37,West,262,0.0,0.9,54,0.00,,,0.00,meteobridge,2013-10-29 21:24:00,
2013-10-29 17:29:00,46.8,31.5,30.37,West,261,0.0,0.0,55,0.00,,,0.00,meteobridge,2013-10-29 21:29:00,
2013-10-29 17:34:00,46.6,31.6,30.37,West,262,0.0,0.0,56,0.00,,,0.00,meteobridge,2013-10-29 21:34:00,
2013-10-29 17:39:00,46.2,32.2,30.38,West,262,0.0,0.0,58,0.00,,,0.00,meteobridge,2013-10-29 21:39:00,
2013-10-29 17:44:00,45.9,32.7,30.38,West,262,0.0,0.0,60,0.00,,,0.00,meteobridge,2013-10-29 21:44:00,
2013-10-29 17:50:00,45.5,32.0,30.38,West,261,0.0,0.0,59,0.00,,,0.00,meteobridge,2013-10-29 21:50:00,
2013-10-29 17:55:00,45.0,32.0,30.38,West,262,0.0,0.0,60,0.00,,,0.00,meteobridge,2013-10-29 21:55:00,
2013-10-29 18:00:00,44.4,31.5,30.39,West,261,0.0,0.0,60,0.00,,,0.00,meteobridge,2013-10-29 22:00:00,
2013-10-29 18:06:00,43.9,31.3,30.39,West,262,0.0,0.0,61,0.00,,,0.00,meteobridge,2013-10-29 22:06:00,
2013-10-29 18:11:00,43.5,31.8,30.39,West,261,0.0,0.0,63,0.00,,,0.00,meteobridge,2013-10-29 22:11:00,
2013-10-29 18:17:00,43.2,31.5,30.39,West,261,0.0,0.0,63,0.00,,,0.00,meteobridge,2013-10-29 22:17:00,
2013-10-29 18:22:00,42.8,31.8,30.39,West,262,0.0,0.0,65,0.00,,,0.00,meteobridge,2013-10-29 22:22:00,
2013-10-29 18:27:00,42.4,31.5,30.38,West,261,0.0,0.0,65,0.00,,,0.00,meteobridge,2013-10-29 22:27:00,
2013-10-29 18:33:00,42.3,31.6,30.39,West,261,0.0,0.0,66,0.00,,,0.00,meteobridge,2013-10-29 22:33:00,
2013-10-29 18:38:00,41.9,31.5,30.39,West,262,0.0,0.0,66,0.00,,,0.00,meteobridge,2013-10-29 22:38:00,
2013-10-29 18:43:00,41.5,31.5,30.39,West,261,0.0,0.0,67,0.00,,,0.00,meteobridge,2013-10-29 22:43:00,
2013-10-29 18:49:00,41.4,31.6,30.39,West,261,0.0,0.0,68,0.00,,,0.00,meteobridge,2013-10-29 22:49:00,
2013-10-29 18:54:00,40.8,31.5,30.39,West,261,0.0,0.0,69,0.00,,,0.00,meteobridge,2013-10-29 22:54:00,
2013-10-29 18:59:00,40.6,31.6,30.39,West,262,0.0,0.0,70,0.00,,,0.00,meteobridge,2013-10-29 22:59:00,
2013-10-29 19:05:00,40.3,31.6,30.40,West,262,0.0,0.0,71,0.00,,,0.00,meteobridge,2013-10-29 23:05:00,
2013-10-29 19:10:00,39.9,31.6,30.40,West,262,0.0,0.0,72,0.00,,,0.00,meteobridge,2013-10-29 23:10:00,
2013-10-29 19:15:00,39.7,31.5,30.40,West,262,0.0,0.0,72,0.00,,,0.00,meteobridge,2013-10-29 23:15:00,
2013-10-29 19:21:00,39.4,31.5,30.40,West,261,0.0,0.0,73,0.00,,,0.00,meteobridge,2013-10-29 23:21:00,
2013-10-29 19:26:00,39.0,31.1,30.40,West,262,0.0,0.0,73,0.00,,,0.00,meteobridge,2013-10-29 23:26:00,
2013-10-29 19:32:00,38.8,31.3,30.41,West,262,0.0,0.0,74,0.00,,,0.00,meteobridge,2013-10-29 23:32:00,
2013-10-29 19:37:00,38.7,31.5,30.40,West,262,0.0,0.0,75,0.00,,,0.00,meteobridge,2013-10-29 23:37:00,
2013-10-29 19:43:00,38.5,31.3,30.40,West,262,0.0,0.0,75,0.00,,,0.00,meteobridge,2013-10-29 23:43:00,
2013-10-29 19:48:00,38.3,31.1,30.40,West,262,0.0,0.0,75,0.00,,,0.00,meteobridge,2013-10-29 23:48:00,
2013-10-29 19:54:00,38.1,31.3,30.40,West,262,0.0,0.0,76,0.00,,,0.00,meteobridge,2013-10-29 23:54:00,
2013-10-29 19:59:00,37.9,31.1,30.40,West,262,0.0,0.0,76,0.00,,,0.00,meteobridge,2013-10-29 23:59:00,
2013-10-29 20:04:00,37.8,31.3,30.40,West,262,0.0,0.0,77,0.00,,,0.00,meteobridge,2013-10-30 00:04:00,
2013-10-29 20:10:00,37.8,31.5,30.40,West,262,0.0,0.0,78,0.00,,,0.00,meteobridge,2013-10-30 00:10:00,
2013-10-29 20:16:00,37.6,31.3,30.40,West,262,0.0,0.0,78,0.00,,,0.00,meteobridge,2013-10-30 00:16:00,
2013-10-29 20:21:00,37.6,31.1,30.40,West,262,0.0,0.0,77,0.00,,,0.00,meteobridge,2013-10-30 00:21:00,
2013-10-29 20:27:00,37.4,31.1,30.40,West,262,0.0,0.0,78,0.00,,,0.00,meteobridge,2013-10-30 00:27:00,
2013-10-29 20:32:00,37.2,30.9,30.40,West,262,0.0,0.0,78,0.00,,,0.00,meteobridge,2013-10-30 00:32:00,
2013-10-29 20:37:00,37.2,30.9,30.40,West,262,0.0,0.0,78,0.00,,,0.00,meteobridge,2013-10-30 00:37:00,
2013-10-29 20:42:00,37.2,30.9,30.40,West,262,0.0,0.0,78,0.00,,,0.00,meteobridge,2013-10-30 00:42:00,
2013-10-29 20:48:00,37.0,30.7,30.39,West,262,0.0,0.0,78,0.00,,,0.00,meteobridge,2013-10-30 00:48:00,
2013-10-29 20:53:00,37.0,31.1,30.39,West,262,0.0,0.0,79,0.00,,,0.00,meteobridge,2013-10-30 00:53:00,
2013-10-29 20:58:00,36.9,30.9,30.39,West,262,0.0,0.0,79,0.00,,,0.00,meteobridge,2013-10-30 00:58:00,
2013-10-29 21:03:00,36.7,30.7,30.39,West,262,0.0,0.0,79,0.00,,,0.00,meteobridge,2013-10-30 01:03:00,
2013-10-29 21:09:00,36.7,31.1,30.39,West,262,0.0,0.0,80,0.00,,,0.00,meteobridge,2013-10-30 01:09:00,
2013-10-29 21:14:00,36.3,30.7,30.39,West,262,0.0,0.0,80,0.00,,,0.00,meteobridge,2013-10-30 01:14:00,
2013-10-29 21:19:00,36.1,30.6,30.40,SW,217,0.0,2.0,80,0.00,,,0.00,meteobridge,2013-10-30 01:19:00,
2013-10-29 21:25:00,36.1,30.9,30.40,SW,217,0.0,0.9,81,0.00,,,0.00,meteobridge,2013-10-30 01:25:00,
2013-10-29 21:30:00,36.0,30.7,30.40,SW,217,0.0,0.0,81,0.00,,,0.00,meteobridge,2013-10-30 01:30:00,
2013-10-29 21:35:00,35.8,30.6,30.40,SW,217,0.0,0.0,81,0.00,,,0.00,meteobridge,2013-10-30 01:35:00,
2013-10-29 21:41:00,35.4,30.6,30.40,SW,217,0.0,0.0,82,0.00,,,0.00,meteobridge,2013-10-30 01:41:00,
2013-10-29 21:47:00,35.2,30.6,30.40,SW,217,0.0,0.0,83,0.00,,,0.00,meteobridge,2013-10-30 01:47:00,
2013-10-29 21:52:00,35.1,30.4,30.40,SW,217,0.0,0.0,83,0.00,,,0.00,meteobridge,2013-10-30 01:52:00,
2013-10-29 21:57:00,35.1,30.4,30.40,SW,217,0.0,0.0,83,0.00,,,0.00,meteobridge,2013-10-30 01:57:00,
2013-10-29 22:02:00,35.1,30.4,30.40,SW,217,0.0,0.0,83,0.00,,,0.00,meteobridge,2013-10-30 02:02:00,
2013-10-29 22:08:00,34.9,30.6,30.40,SW,217,0.0,0.0,84,0.00,,,0.00,meteobridge,2013-10-30 02:08:00,
2013-10-29 22:13:00,34.7,30.4,30.40,SW,217,0.0,0.0,84,0.00,,,0.00,meteobridge,2013-10-30 02:13:00,
2013-10-29 22:18:00,34.7,30.7,30.40,SW,217,0.0,0.0,85,0.00,,,0.00,meteobridge,2013-10-30 02:18:00,
2013-10-29 22:23:00,34.7,30.7,30.40,SW,217,0.0,0.0,85,0.00,,,0.00,meteobridge,2013-10-30 02:23:00,
2013-10-29 22:29:00,34.7,30.7,30.40,SW,217,0.0,0.0,85,0.00,,,0.00,meteobridge,2013-10-30 02:29:00,
2013-10-29 22:34:00,34.7,30.7,30.40,SW,217,0.0,0.0,85,0.00,,,0.00,meteobridge,2013-10-30 02:34:00,
2013-10-29 22:39:00,34.7,30.7,30.40,SW,217,0.0,0.0,85,0.00,,,0.00,meteobridge,2013-10-30 02:39:00,
2013-10-29 22:44:00,34.5,30.6,30.40,SW,217,0.0,0.0,85,0.00,,,0.00,meteobridge,2013-10-30 02:44:00,
2013-10-29 22:49:00,34.5,30.6,30.40,SW,217,0.0,0.0,85,0.00,,,0.00,meteobridge,2013-10-30 02:49:00,
2013-10-29 22:55:00,34.5,30.7,30.40,SW,217,0.0,0.0,86,0.00,,,0.00,meteobridge,2013-10-30 02:55:00,
2013-10-29 23:00:00,34.5,30.7,30.40,SW,217,0.0,0.0,86,0.00,,,0.00,meteobridge,2013-10-30 03:00:00,
2013-10-29 23:05:00,34.5,30.7,30.40,SW,217,0.0,0.0,86,0.00,,,0.00,meteobridge,2013-10-30 03:05:00,
2013-10-29 23:10:00,34.5,30.7,30.40,SW,217,0.0,0.0,86,0.00,,,0.00,meteobridge,2013-10-30 03:10:00,
2013-10-29 23:15:00,34.5,30.7,30.40,SW,217,0.0,0.0,86,0.00,,,0.00,meteobridge,2013-10-30 03:15:00,
2013-10-29 23:21:00,34.3,30.6,30.40,SW,217,0.0,0.0,86,0.00,,,0.00,meteobridge,2013-10-30 03:21:00,
2013-10-29 23:26:00,34.3,30.6,30.39,SW,217,0.0,0.0,86,0.00,,,0.00,meteobridge,2013-10-30 03:26:00,
2013-10-29 23:32:00,34.3,30.6,30.39,SW,217,0.0,0.0,86,0.00,,,0.00,meteobridge,2013-10-30 03:32:00,
2013-10-29 23:37:00,34.3,30.9,30.39,SW,217,0.0,0.0,87,0.00,,,0.00,meteobridge,2013-10-30 03:37:00,
2013-10-29 23:42:00,34.2,30.7,30.38,SW,217,0.0,0.0,87,0.00,,,0.00,meteobridge,2013-10-30 03:42:00,
2013-10-29 23:48:00,34.2,30.7,30.38,SW,217,0.0,0.0,87,0.00,,,0.00,meteobridge,2013-10-30 03:48:00,
2013-10-29 23:53:00,34.2,30.7,30.37,SW,217,0.0,0.0,87,0.00,,,0.00,meteobridge,2013-10-30 03:53:00,
2013-10-29 23:59:00,34.2,30.7,30.38,SW,217,0.0,0.0,87,0.00,,,0.00,meteobridge,2013-10-30 03:59:00,